Flag for Czech Republic Weather past 2 weeks in Plzen, Czech Republic

Now
93 °F

Partly sunny.


Feels Like: 92 °F
Forecast: 65 / 80 °F
Wind: 3 mph from Southwest

Location: Kocelovice

Current Time: Jul 5, 2015 at 3:32:56 PM

Latest Report: Jul 5, 2015 at 2:00 PM


Visibility: 16 mi

Pressure: 29.96 "Hg

Humidity: 30%

Dew point: 57 °F

Location of PlzenLocation

Historic Weather in Plzen — Graph

°F

Plzen temperature yesterday

Maximum temperature yesterday: 91 °F (at 4:00 PM)
Minimum temperature yesterday: 61 °F (at 5:00 AM)
Average temperature yesterday: 78 °F

Past Weeks' High & Low Weather Summary

 TemperatureHumidityPressure
High93 °F (Jul 5, 2:00 PM)100% (Jun 30, 2:00 AM)30.29 "Hg (Jun 30, 2:00 AM)
Low42 °F (Jun 25, 5:00 AM)30% (Jul 4, 4:00 PM)29.70 "Hg (Jun 23, 4:00 AM)
Average63 °F68%30.10 "Hg
* Reported Jun 20 2:00 PM — Jul 5 2:00 PM, Plzen, Weather by CustomWeather, © 2015

Note: Actual official high and low records may vary slightly from our data, if they occured in-between our weather recording intervals... More about our weather records

Advertising

Plzen weather history for previous 24 hours

 ConditionsComfort  
Time TempWeatherWind HumidityBarometerVisibility
2:00 PM
Sun, Jul 5
93 °FPartly sunny.3 mph30%29.96 "Hg16 mi
1:00 PM90 °FPartly sunny.3 mph34%29.98 "Hg16 mi
12:00 PM89 °FPartly sunny.N/A38%30.00 "Hg16 mi
11:00 AM86 °FPartly sunny.N/A44%30.02 "Hg16 mi
10:00 AM82 °FPartly sunny.N/A48%30.04 "Hg16 mi
9:00 AM77 °FPartly sunny.N/A60%30.06 "Hg16 mi
8:00 AM73 °FOvercast.N/A73%30.08 "Hg14 mi
7:00 AM68 °FMild.1 mph82%30.10 "Hg12 mi
6:00 AM65 °FMild.1 mph85%30.11 "Hg12 mi
4:00 AM65 °FMild.N/A85%30.11 "Hg12 mi
3:00 AM68 °FMild.1 mph79%30.11 "Hg12 mi
2:00 AM69 °FMild.N/A77%30.11 "Hg12 mi
1:00 AM71 °FMild.1 mph70%30.09 "Hg11 mi
12:00 AM71 °FMild.N/A75%30.10 "Hg12 mi
11:00 PM
Sat, Jul 4
74 °FMild.2 mph66%30.10 "Hg12 mi
10:00 PM79 °FPassing clouds.1 mph51%30.08 "Hg16 mi
9:00 PM83 °FPassing clouds.2 mph43%30.07 "Hg17 mi
8:00 PM86 °FPassing clouds.2 mph41%30.05 "Hg19 mi
7:00 PM88 °FPassing clouds.1 mph39%30.06 "Hg19 mi
6:00 PM89 °FPassing clouds.N/A33%30.06 "Hg19 mi
5:00 PM90 °FPassing clouds.3 mph30%30.07 "Hg19 mi
4:00 PM91 °FPassing clouds.N/A30%30.08 "Hg17 mi
3:00 PM89 °FPassing clouds.3 mph31%30.09 "Hg17 mi
Weather by CustomWeather, © 2015

See weather overviewHow to use our weather pages